Voltar ao catálogo

YUNYAO-1 26

AtivoMeteoSSO
NORAD 59921·PAYLOAD·🇨🇳 China
Este nome de satélite ainda não foi confirmado por fontes oficiais.

Lançado May 30, 2024 de Jiuquan Satellite Launch Center

Loading…

Próximas Passagens (próximas 24 horas)

TLE

AtualizadoSource: Space-Track

Época: Sep 14, 2026, 22:58 UTC

1 59921U 24105E   26257.95747912  .00001943  00000-0  11833-3 0  9990
2 59921  97.5793 273.7502 0029537 236.9615 122.8777 15.11253527126692

Acompanhe YUNYAO-1 26 em tempo real com AllMySat

Download on the App Store